sat.trackr.live / text

‹ back to catalog

QIANFAN-72

NORAD 62802 · 2025-016T

PAYLOAD ACTIVE UNKNOWN

§ Identity

Operator
Country
PRC
Launch date
2025-01-23
Launch site
TAISC
Launch vehicle
Mass (kg)
RCS (m²)

External: N2YO · Heavens-Above · Gunter

§ Orbital elements

Epoch: 2026-05-25T02:38:47.652000Z

Period
106.59 min
Inclination
88.9714°
Eccentricity
0.0016732
Mean motion
13.51012042 rev/d
Perigee alt
1,056.1 km
Apogee alt
1,081.0 km
Semi-major
7,446.7 km
B*
1.4544e-4
RAAN
86.1248°
Arg perigee
241.8345°
Mean anomaly
118.1116°
Rev number
6,928

§ Raw data

QIANFAN-721 62802U 25016T   26145.11027375  .00000106  00000+0  14544-3 0  99932 62802  88.9714  86.1248 0016732 241.8345 118.1116 13.51012042 69285

JSON: /api/v1/satellites/62802 · /tle

For live sub-satellite position, see the globe view (requires WebGL).

§ Visibility from observer

Set your observer location to see the next 7 days of passes ≥ 10°. The values pass through the URL so the page stays shareable.

No JS? Fill the form by hand. The geolocation button needs JavaScript.